This is the latest recevied weather packets stored in our database for station/object XE2OR-10. If no packets are shown the sender has not sent any weather packets the latest 10 day(s).
| Time | Temp. | Humidity | Pressure | Rain* | Wind** | Luminosity | Snow |
|---|---|---|---|---|---|---|---|
| 1777726129 | 14.44° C | 83% | 1025.7 hPa | 0 mm | - | 35 W/m² | - |
| 1777725833 | 14.44° C | 83% | 1025.7 hPa | 0 mm | - | 29 W/m² | - |
| 1777725529 | 14.44° C | 83% | 1025.9 hPa | 0 mm | - | 25 W/m² | - |
| 1777725229 | 14.44° C | 83% | 1025.6 hPa | 0 mm | - | 20 W/m² | - |
| 1777724929 | 14.44° C | 83% | 1025.7 hPa | 0 mm | - | 16 W/m² | - |
| 1777724633 | 14.44° C | 84% | 1025.3 hPa | 0 mm | - | 11 W/m² | - |
| 1777724329 | 14.44° C | 84% | 1025.4 hPa | 0 mm | - | 8 W/m² | - |
| 1777724032 | 14.44° C | 84% | 1025.4 hPa | 0 mm | - | 5 W/m² | - |
| 1777723729 | 14.44° C | 84% | 1025.3 hPa | 0 mm | - | 2 W/m² | - |
| 1777723429 | 14.44° C | 84% | 1025.3 hPa | 0 mm | - | 0 W/m² | - |
| 1777723129 | 14.44° C | 84% | 1025 hPa | 0 mm | - | 0 W/m² | - |
| 1777722832 | 14.44° C | 84% | 1025.3 hPa | 0 mm | - | 0 W/m² | - |
| 1777722529 | 14.44° C | 84% | 1025.2 hPa | 0 mm | - | 0 W/m² | - |
| 1777722233 | 14.44° C | 84% | 1025.1 hPa | 0 mm | - | 0 W/m² | - |
| 1777721929 | 14.44° C | 84% | 1025 hPa | 0 mm | - | 0 W/m² | - |
| 1777721629 | 14.44° C | 83% | 1025.1 hPa | 0 mm | - | 0 W/m² | - |
| 1777721329 | 14.44° C | 83% | 1025 hPa | 0 mm | - | 0 W/m² | - |
| 1777721032 | 14.44° C | 84% | 1024.7 hPa | 0 mm | - | 0 W/m² | - |
| 1777720729 | 14.44° C | 83% | 1024.7 hPa | 0 mm | - | 0 W/m² | - |
| 1777720432 | 14.44° C | 83% | 1024.8 hPa | 0 mm | - | 0 W/m² | - |
| 1777720129 | 14.44° C | 83% | 1024.8 hPa | 0 mm | - | 0 W/m² | - |
| 1777719828 | 14.44° C | 83% | 1024.7 hPa | 0 mm | - | 0 W/m² | - |
| 1777719529 | 14.44° C | 83% | 1024.7 hPa | 0 mm | - | 0 W/m² | - |
| 1777719233 | 14.44° C | 83% | 1024.6 hPa | 0 mm | - | 0 W/m² | - |
| 1777718929 | 14.44° C | 83% | 1024.6 hPa | 0 mm | - | 0 W/m² | - |
* Rain latest hour (hover to see other rain measurements)
** Current wind speed in m/s (hover to see current wind gust speed)